SCP
0 0 0 0 0 0 0 0 0 0 0 0 0 0 0 0 0 0 1 1 0 0 0 0 0 0 0 0 0 0 0 0 0 0 0 0 0 0 0 0 0 0 0 0
0 0 0 0 0 0 0 0 0 0 0 0 0 0 0 0 0 0 0 0 0 0 0 0 0 0 0 0 0 1 1 0 0 0 0 0 0 0 0 0 0 0 0 0
0 0 0 0 0 0 0 0 0 0 0 0 0 0 0 0 0 0 0 0 0 0 0 0 0 0 0 0 0 1 1 1 1 1 1 0 0 0 0 0 0 0 0 0
0 0 0 0 0 0 0 0 0 0 0 0 0 0 0 0 0 0 0 0 0 0 0 0 0 0 0 0 1 1 1 1 1 1 1 1 1 1 0 0 0 0 0 0
0 0 0 0 0 0 0 0 0 0 0 0 0 0 0 0 0 0 0 0 0 0 0 0 0 0 0 0 1 1 1 1 1 1 1 1 1 1 1 1 0 0 0 0
0 0 0 0 0 0 0 0 0 0 0 0 0 0 0 0 0 0 0 0 0 0 0 0 0 0 0 0 0 1 1 1 1 1 1 1 1 1 0 0 0 0 0 0
0 0 0 0 0 0 0 0 0 0 0 0 0 0 0 0 0 0 0 0 0 0 0 0 0 0 0 0 0 0 0 0 1 1 1 1 1 0 0 0 0 0 0 0
0 0 0 0 0 0 0 0 0 0 0 0 0 0 0 0 0 0 0 0 0 0 0 0 0 0 0 0 0 0 0 0 0 0 0 0 0 0 0 0 0 0 0 0
0 0 0 0 0 0 0 0 0 0 0 0 0 0 0 0 0 0 0 0 0 0 0 0 0 0 0 0 0 0 0 0 0 0 0 0 0 0 0 0 0 0 0 0
0 0 0 0 0 0 0 0 0 0 0 0 0 0 0 0 0 0 0 0 0 0 0 0 0 0 0 0 0 0 0 0 0 0 0 0 0 0 0 0 0 0 0 0
0 0 0 0 0 0 0 0 0 0 0 0 0 0 0 0 0 0 0 0 0 0 0 0 0 0 0 0 0 0 0 0 0 0 0 0 0 0 0 0 0 0 0 0
0 0 0 0 0 0 0 0 0 0 0 0 0 0 0 0 0 0 0 0 0 0 0 0 0 0 0 0 0 0 0 0 0 0 0 0 0 0 0 0 0 0 0 0
0 0 0 0 0 0 0 0 0 0 0 0 0 0 0 0 0 0 0 0 0 0 0 0 0 0 0 0 0 0 0 0 0 0 0 0 0 0 0 0 0 0 0 0
0 0 0 0 0 0 0 0 0 0 0 0 0 0 0 0 0 0 0 0 0 0 0 0 0 0 0 0 0 0 0 0 0 0 0 0 0 0 0 0 0 0 0 0
0 0 0 0 0 0 0 0 0 0 0 0 0 0 0 0 0 0 0 0 0 0 0 0 0 0 0 0 0 0 0 0 0 0 0 0 0 0 0 0 0 0 0 0
0 0 0 0 0 0 0 0 0 0 0 0 0 0 0 0 0 0 0 0 0 0 0 0 0 0 0 0 0 0 0 0 0 0 0 0 0 0 0 0 0 0 0 0
0 0 0 0 0 0 0 0 0 0 0 0 0 0 0 0 0 0 0 0 0 0 0 0 0 0 0 0 0 0 0 0 0 0 0 0 0 0 0 0 0 0 0 0
0 0 0 0 0 0 0 0 0 0 0 0 0 0 0 0 0 0 0 0 0 0 0 0 0 0 0 0 0 0 0 0 0 0 0 0 0 0 0 0 0 0 0 0
0 0 0 0 0 0 0 0 0 0 0 0 0 0 0 0 0 0 0 0 0 0 0 0 0 0 0 0 0 0 0 0 0 0 0 0 0 0 0 0 0 0 0 0
0 0 0 0 0 0 0 0 0 0 0 0 0 0 0 0 0 0 0 0 0 0 0 0 0 0 0 0 0 0 0 0 0 0 0 0 0 0 0 0 0 0 0 0
0 0 0 0 0 0 0 0 0 0 0 0 0 0 0 0 0 0 0 0 0 0 0 0 0 0 0 0 0 0 0 0 0 0 0 0 0 0 0 0 0 0 0 0
0 0 0 0 0 0 0 0 0 0 1 1 1 0 0 0 0 0 0 0 0 0 0 0 0 0 0 0 0 0 0 0 0 0 0 0 0 0 0 0 0 0 0 0
0 0 0 0 0 0 0 0 0 0 1 1 0 0 0 0 0 0 0 0 0 0 0 0 0 0 0 0 0 0 0 0 0 0 0 0 0 0 0 0 0 0 0 0
0 0 0 0 0 0 0 0 0 0 0 0 0 0 0 0 0 0 0 0 0 0 0 0 0 0 0 0 0 0 0 0 0 0 0 0 0 0 0 0 0 0 0 0
0 0 0 0 0 0 0 0 0 0 0 0 0 0 0 0 0 0 0 0 0 0 0 0 0 0 0 0 0 0 0 0 0 0 0 0 0 0 0 0 0 0 0 0
0 0 0 0 0 0 0 0 0 0 0 0 0 0 0 0 0 0 0 0 0 0 0 0 0 0 0 0 0 0 0 0 0 0 0 0 0 0 0 0 0 0 0 0
0 0 0 0 0 0 0 0 0 0 0 0 0 0 0 0 0 0 0 0 0 0 0 0 0 0 0 0 0 0 0 0 0 0 0 0 0 0 0 0 0 0 0 0
Wind_Speed
3 3 1 2 3 1 3 6 7 6 7 8 8 8 7 6 7 7 6 6 6 5 5 5 4 4 4 3 3 3 3 3 2 1 1 1 1 0 0 0 1 1 1 2
3 3 3 3 2 1 1 2 4 5 3 4 4 5 5 6 8 8 7 7 6 6 5 5 5 4 4 3 3 3 3 2 1 1 1 0 1 1 0 1 1 1 1 1
2 4 4 3 3 2 2 2 6 6 6 6 6 6 7 7 6 7 8 7 7 6 5 5 5 5 4 4 3 4 3 2 1 1 1 0 0 0 1 1 0 0 0 1
1 3 1 6 2 3 5 3 2 4 6 9 8 6 4 5 6 6 6 6 6 5 5 4 4 4 4 4 3 3 2 2 1 1 1 1 1 1 1 1 1 1 1 1
3 1 3 4 4 0 4 2 2 6 7 6 7 7 4 1 4 5 5 6 5 5 5 5 4 4 5 3 3 3 2 2 2 1 1 1 1 2 1 1 1 1 1 1
4 3 4 5 5 1 7 2 1 5 7 6 6 4 2 1 4 5 5 4 4 4 5 4 3 4 5 3 3 2 2 3 2 2 2 2 2 2 1 1 1 1 1 1
3 2 4 5 5 3 4 5 3 5 8 7 4 5 5 4 5 5 4 4 4 5 4 3 3 5 4 3 2 2 2 2 1 2 2 2 1 1 1 1 1 1 1 1
3 2 6 5 2 3 5 4 4 5 6 6 5 5 5 5 5 5 4 4 4 4 3 2 3 4 4 2 2 2 2 2 1 1 2 1 1 1 1 1 1 1 1 1
6 6 6 2 3 4 5 5 4 5 6 8 7 5 5 5 5 5 5 4 3 4 3 1 2 3 4 2 2 2 2 1 1 1 1 1 1 1 1 1 0 1 1 1
1 2 1 1 3 3 4 5 3 5 7 8 7 6 5 5 4 4 4 4 3 4 3 1 1 2 3 2 2 2 2 1 1 1 1 1 1 1 1 1 1 1 1 1
1 2 1 1 1 2 3 5 5 5 5 7 8 6 5 5 4 4 3 3 3 4 3 2 1 1 1 2 2 2 1 1 1 1 1 1 1 1 2 2 3 3 3 2
5 6 4 4 2 3 4 5 5 5 4 4 6 7 6 5 4 4 4 3 3 3 3 2 1 1 1 1 2 2 1 1 1 1 1 1 1 2 2 2 2 2 3 3
5 3 3 3 2 3 4 5 5 4 6 5 4 5 5 4 4 4 4 4 4 3 3 2 1 2 2 1 2 2 2 2 2 2 2 2 2 2 2 3 3 3 3 3
1 2 2 0 2 3 4 5 5 5 5 6 5 5 4 4 4 4 4 4 3 3 3 2 2 2 3 2 1 1 2 2 2 2 2 2 2 2 2 2 2 3 3 4
1 2 3 2 3 4 5 6 6 5 5 4 4 5 5 4 4 4 3 4 3 3 2 2 2 2 2 1 1 1 1 2 2 2 2 2 2 2 2 2 2 2 2 3
1 1 3 4 5 5 5 6 6 5 5 4 4 5 5 5 4 3 3 4 4 3 2 2 2 2 2 2 1 1 2 3 2 1 1 1 1 1 1 2 2 2 2 3
3 2 3 3 4 4 4 5 6 6 4 4 5 5 5 4 3 3 2 3 3 3 2 2 2 2 1 1 1 1 1 1 1 0 1 1 1 2 2 2 2 2 3 3
4 5 6 6 5 5 4 4 5 6 5 4 4 5 5 5 4 3 2 2 2 1 1 2 2 1 1 1 1 1 1 1 1 1 1 1 1 1 1 1 2 2 3 3
3 3 3 4 5 5 5 5 5 5 5 5 5 5 4 4 3 3 3 3 3 1 2 1 0 0 1 1 1 1 1 1 1 1 1 1 1 1 1 2 2 2 2 2
3 3 4 4 4 5 4 5 5 4 4 5 5 5 4 3 3 4 3 2 2 2 2 1 1 1 1 1 1 1 1 1 1 1 1 1 1 1 1 2 2 2 2 2
4 4 5 5 5 5 4 5 6 5 3 4 5 5 4 3 3 3 3 1 2 1 1 1 1 1 1 1 0 0 1 0 1 1 1 1 1 1 2 2 2 2 2 3
4 4 4 5 5 4 4 4 5 5 4 3 4 4 4 3 2 2 2 2 2 2 1 1 0 1 0 0 0 0 0 0 1 1 1 1 1 1 2 2 2 3 3 3
3 3 3 4 4 5 4 3 4 5 5 4 4 4 4 3 3 3 2 2 2 2 2 1 1 1 1 0 0 0 0 0 1 1 1 2 2 2 2 3 2 3 3 3
4 3 3 2 3 4 3 2 3 3 4 3 3 4 3 2 1 2 2 3 3 3 1 1 1 1 1 1 1 1 1 0 0 1 2 2 2 2 2 2 3 3 3 3
3 3 2 3 3 2 2 2 3 3 3 2 2 3 2 3 3 2 2 2 3 2 1 1 2 1 1 0 1 0 0 0 1 1 1 2 2 2 2 3 3 3 3 3
1 2 2 2 2 2 2 3 3 3 3 2 1 1 1 2 2 2 2 2 2 2 1 1 1 1 1 1 1 1 1 1 1 1 2 2 2 2 2 3 4 3 3 3
0 0 1 0 1 2 3 3 3 3 3 3 3 2 2 2 2 2 2 2 2 1 1 1 1 1 1 1 1 1 1 1 1 2 1 2 2 2 3 3 2 2 2 3
Wind_Direction
214 235 252 279 279 209 155 172 175 200 186 202 188 168 159 157 149 144 145 144 148 151 152 146 144 143 138 139 142 136 129 133 159 170 132 109 92 38 5 20 46 44 39 9
346 328 353 347 329 217 194 142 143 139 197 206 163 137 135 146 150 150 154 155 156 153 149 151 154 148 142 142 149 138 137 165 181 143 114 131 186 173 82 42 42 54 43 359
286 311 21 342 298 140 108 120 138 171 203 161 144 147 149 146 143 149 157 159 160 160 160 159 155 149 150 157 153 146 154 165 167 158 152 196 236 187 193 196 106 20 299 303
130 30 270 248 272 103 104 76 104 136 142 151 150 142 133 138 142 145 145 151 156 151 145 145 144 142 139 136 142 148 154 157 165 173 193 213 197 221 238 232 225 261 294 287
117 151 276 304 321 48 111 50 53 124 127 125 115 86 57 88 135 147 146 144 146 148 144 141 141 138 125 120 132 142 164 180 191 190 201 216 227 242 231 215 250 257 262 290
130 149 218 251 284 194 98 68 297 118 127 124 107 110 218 198 122 120 113 122 129 131 125 132 150 137 126 127 125 155 188 192 195 189 191 214 229 238 237 213 238 253 287 285
146 178 248 259 288 54 109 213 218 147 144 140 147 176 180 140 113 113 117 120 119 116 118 138 141 129 127 135 166 198 178 168 187 198 201 210 216 230 259 254 256 250 263 291
136 154 246 277 47 131 196 193 156 146 148 142 142 132 128 130 132 131 123 119 119 116 112 119 127 126 131 165 200 171 135 138 185 225 225 205 197 236 258 246 253 265 284 311
175 203 231 242 160 172 149 136 149 151 158 148 138 140 136 133 133 132 130 129 123 123 118 106 127 137 148 193 188 141 134 177 215 233 244 227 200 234 263 260 234 268 271 287
109 273 279 69 90 101 122 131 144 144 146 141 139 143 135 135 133 131 133 134 127 122 126 151 173 155 175 189 175 151 167 217 238 236 262 278 259 218 235 249 223 228 244 274
219 251 44 32 108 129 110 109 109 114 136 148 143 146 145 143 146 146 141 140 139 145 150 165 165 163 197 198 169 167 200 226 240 228 217 230 263 258 238 243 218 205 213 210
218 224 183 213 204 138 124 129 129 124 119 142 147 148 144 147 153 148 144 138 137 143 151 165 169 215 237 210 174 168 203 241 228 219 221 214 220 306 305 265 278 249 224 212
206 204 176 195 168 130 131 137 138 135 139 134 131 138 140 141 143 139 138 142 153 161 166 171 189 234 252 230 184 185 207 227 227 217 219 226 223 224 279 312 321 307 279 266
148 106 88 182 146 140 134 130 125 117 118 129 134 130 129 128 132 138 152 165 161 156 165 180 194 231 245 226 190 211 227 240 232 223 221 222 223 227 227 238 284 296 291 279
229 151 167 164 114 109 112 113 111 113 117 127 139 137 136 140 150 160 165 152 138 139 159 169 189 235 240 207 202 236 249 249 238 234 226 221 225 232 243 249 250 267 302 304
208 118 132 135 130 134 129 125 129 139 145 152 153 151 149 148 150 154 157 151 148 162 173 170 206 240 215 203 217 245 252 261 257 223 213 214 227 228 245 253 254 253 260 272
156 168 162 158 150 151 152 146 148 155 156 159 160 151 139 130 129 138 158 167 159 168 180 186 224 252 223 202 207 239 249 260 290 298 222 220 225 229 227 229 240 254 263 263
177 176 171 169 160 152 148 143 147 150 156 166 150 136 137 144 157 167 173 150 121 101 230 217 217 240 246 221 196 185 189 226 235 235 238 238 238 239 232 233 253 265 279 286
138 136 140 146 148 147 148 151 155 152 144 139 141 144 151 157 155 152 144 131 133 201 270 261 218 181 247 230 174 174 195 237 268 277 256 256 254 256 253 257 267 276 277 280
122 118 113 111 114 118 125 137 140 138 137 134 132 129 134 145 145 144 140 151 192 213 238 248 236 251 259 244 195 180 191 220 234 255 271 265 272 280 269 267 271 275 277 275
120 113 110 114 108 104 112 126 132 134 130 131 140 147 148 150 148 143 145 168 254 213 190 189 197 237 256 277 299 116 143 175 221 229 250 255 266 279 281 279 280 282 282 280
104 111 118 124 117 114 119 121 130 129 121 123 136 139 135 138 143 144 178 192 208 184 171 192 221 219 226 359 57 88 158 211 238 249 259 272 274 275 277 280 282 286 287 282
107 104 107 117 126 126 116 117 130 132 137 146 154 159 160 168 166 162 206 233 184 168 160 188 220 194 181 94 80 103 194 242 247 254 261 264 269 272 272 277 281 283 283 282
118 124 121 113 106 105 110 140 134 136 148 159 165 166 162 157 173 208 190 173 166 158 163 193 194 179 132 78 75 66 40 4 313 291 279 276 278 282 282 281 284 288 285 285
132 127 120 112 118 151 172 149 119 129 139 138 146 157 163 160 163 184 156 149 153 145 149 185 198 203 161 104 119 122 158 294 292 294 302 298 291 286 282 281 279 279 282 284
150 154 165 172 174 180 170 152 147 160 155 150 168 180 154 135 135 130 127 138 147 151 171 214 228 216 194 193 205 213 243 278 294 293 290 288 296 298 297 294 292 287 284 283
279 207 151 148 195 182 170 163 162 173 175 167 172 182 162 145 139 141 145 153 171 188 212 229 229 210 200 203 213 224 242 260 273 278 281 284 291 296 294 293 292 295 301 302